This demonstration page uses our WeatherBlox Daily Observations layout. Learn more.

Left ArrowRight Arrow

30.21309, -93.2044

Hourly Observations for July 27, 2019

Temp ( °F °C ) Dew Point ( °F °C ) Humidity (%) Winds ( mph kmh ) Pressure ( in mb ) Visibility ( mi km ) Precip ( " mm )
12:15 am 00:15 Clear 76 24.2 74 23.1 94 94 E 5 7 30.12 1020 10 16 0.00 0.00
12:35 am 00:35 Clear 76 24.2 74 23.2 94 94 E 5 7 30.11 1020 10 16 0.00 0.00
12:55 am 00:55 Clear 75 24 74 23.1 95 95 E 5 7 30.11 1020 10 16 0.00 0.00
1:15 am 01:15 Clear 75 24 74 23.1 95 95 E 3 6 30.11 1020 10 16 0.00 0.00
1:35 am 01:35 Clear 75 24 74 23.1 95 95 ENE 3 6 30.11 1020 10 16 0.00 0.00
1:55 am 01:55 Clear 75 23.7 73 23 96 96 E 5 7 30.11 1020 10 16 0.00 0.00
2:15 am 02:15 Clear 75 23.8 74 23.1 96 96 E 3 6 30.11 1020 10 16 0.00 0.00
2:35 am 02:35 Clear 75 23.7 74 23.1 96 96 E 6 9 30.10 1019 10 16 0.00 0.00
2:55 am 02:55 Clear 75 23.8 74 23.1 96 96 E 5 7 30.10 1019 10 16 0.00 0.00
3:15 am 03:15 Clear 75 23.7 74 23.1 96 96 ENE 6 9 30.10 1019 10 16 0.00 0.00
3:35 am 03:35 Clear 75 24 74 23.2 95 95 ENE 3 6 30.10 1019 10 16 0.00 0.00
3:55 am 03:55 Clear 75 24 74 23.1 95 95 E 6 9 30.11 1020 10 16 0.00 0.00
4:15 am 04:15 Partly Cloudy 75 23.7 73 22.8 95 95 E 6 9 30.10 1019 10 16 0.00 0.00
4:35 am 04:35 Partly Cloudy 74 23.5 73 22.5 94 94 E 6 9 30.10 1019 10 16 0.00 0.00
4:55 am 04:55 Partly Cloudy 74 23.5 73 22.5 94 94 ENE 6 9 30.11 1020 10 16 0.00 0.00
5:15 am 05:15 Mostly Cloudy 74 23.5 73 22.5 94 94 E 6 9 30.12 1020 10 16 0.00 0.00
5:35 am 05:35 Mostly Cloudy 74 23.5 73 22.5 94 94 ENE 3 6 30.12 1020 10 16 0.00 0.00
6:00 am 06:00 Partly Cloudy 73 23 73 23 100 100 ENE 3 6 30.12 1020 10 16 0.00 0.00
6:50 am 06:50 Partly Cloudy 75 24 73 23 94 94 ENE 5 7 30.13 1020 10 16 0.00 0.00
7:50 am 07:50 Partly Cloudy 75 24 73 23 94 94 ENE 3 6 30.16 1021 10 16 0.00 0.00
8:50 am 08:50 Partly Cloudy 82 28 77 25 84 84 E 10 17 30.17 1022 10 16 0.00 0.00
9:50 am 09:50 Cloudy 84 29 77 25 79 79 ESE 12 19 30.17 1022 10 16 0.00 0.00
10:50 am 10:50 Mostly Cloudy 86 30 77 25 75 75 E 9 15 30.17 1022 10 16 0.00 0.00
11:54 am 11:54 Mostly Cloudy 82 28 73 23 74 74 SSE 7 11 30.18 1022 10 16 0.00 0.00
12:50 pm 12:50 Partly Cloudy 81 27 73 23 79 79 SSE 7 11 30.16 1021 10 16 0.00 0.00
1:48 pm 13:48 Partly Cloudy 84 29 75 24 74 74 SSE 7 11 30.16 1021 10 16 0.00 0.00
2:48 pm 14:48 Partly Cloudy 86 30 73 23 66 66 SSE 10 17 30.15 1021 10 16 0.00 0.00
3:50 pm 15:50 Mostly Cloudy 88 31 75 24 66 66 SE 9 15 30.12 1020 10 16 0.00 0.00
4:55 pm 16:55 Mostly Cloudy 88 31 75 24 66 66 SE 9 15 30.12 1020 10 16 0.00 0.00
5:53 pm 17:53 Partly Cloudy 86 30 75 24 70 70 S 9 15 30.12 1020 10 16 0.00 0.00
6:55 pm 18:55 Partly Cloudy 84 29 73 23 70 70 S 7 11 30.11 1020 10 16 0.00 0.00
7:55 pm 19:55 Partly Cloudy 84 29 75 24 74 74 SW 7 11 30.10 1019 10 16 0.00 0.00
8:50 pm 20:50 Mostly Clear 81 27 75 24 84 84 ESE 8 13 30.11 1020 10 16 0.00 0.00
9:54 pm 21:54 Partly Cloudy 77 25 75 24 94 94 ESE 6 9 30.13 1020 10 16 0.00 0.00
10:15 pm 22:15 Clear with Rain 78 25.5 76 24.5 94 94 SE 5 7 30.13 1020 10 16 0.00 0.00
10:35 pm 22:35 Partly Cloudy with Rain 78 25.3 76 24.5 95 95 SE 5 7 30.13 1020 10 16 0.00 0.00
10:55 pm 22:55 Partly Cloudy with Rain 78 25.3 76 24.5 95 95 SE 5 7 30.13 1020 10 16 0.00 0.00
11:15 pm 23:15 Clear with Rain 78 25.5 76 24.7 95 95 ESE 5 7 30.14 1021 10 16 0.00 0.00
11:35 pm 23:35 Clear with Light Rain 78 25.5 76 24.7 95 95 SE 6 9 30.14 1021 10 16 0.00 0.00
11:55 pm 23:55 Clear with Light Rain 78 25.5 76 24.6 95 95 SE 6 9 30.13 1020 10 16 0.00 0.00

Powered by AerisWeather